Flag for Germany Weather past 2 weeks in Mörfelden-Walldorf, Hesse, Germany

Now
63 °F

Sunny.


Feels Like: 63 °F
Forecast: 44 / 70 °F
Wind: 3 mph from North

Location: Frankfurt-M-Flughafen Airport

Current Time: Aug 20, 2014 at 8:31:53 PM

Latest Report: Aug 20, 2014 at 7:50 PM


Visibility: 10 mi

Pressure: 29.98 "Hg

Humidity: 56%

Dew point: 46 °F

Location of Mörfelden-WalldorfLocation

Historic Weather in Mörfelden-Walldorf — Graph

°F

Mörfelden-Walldorf temperature yesterday

Maximum temperature yesterday: 72 °F (at 3:50 PM)
Minimum temperature yesterday: 52 °F (at 3:50 AM)
Average temperature yesterday: 59 °F

Past Weeks' High & Low Weather Summary

 TemperatureHumidityPressure
High82 °F (Aug 8, 2:50 PM)100% (Aug 6, 3:50 AM)30.09 "Hg (Aug 6, 3:50 AM)
Low46 °F (Aug 20, 5:20 AM)33% (Aug 12, 6:20 PM)29.65 "Hg (Aug 13, 2:20 PM)
Average64 °F74%29.91 "Hg
* Reported Aug 5 7:20 PM — Aug 20 7:20 PM, Mörfelden-Walldorf, Weather by CustomWeather, © 2014

Note: Actual official high and low records may vary slightly from our data, if they occured in-between our weather recording intervals... More about our weather records

Advertising

Mörfelden-Walldorf weather history for previous 24 hours

 ConditionsComfort  
Time TempWeatherWind HumidityBarometerVisibility
7:20 PM
Aug 20
64 °FSunny.7 mph49%29.98 "Hg10 mi
6:50 PM64 °FSunny.8 mph46%29.98 "Hg10 mi
6:20 PM64 °FSunny.7 mph46%29.98 "Hg10 mi
5:50 PM64 °FSunny.6 mph43%30.01 "Hg10 mi
5:20 PM64 °FPassing clouds.6 mph46%30.01 "HgN/A
4:50 PM66 °FPassing clouds.6 mph43%30.01 "HgN/A
4:20 PM64 °FSunny.9 mph46%30.01 "Hg10 mi
3:50 PM64 °FSunny.7 mph49%30.01 "Hg10 mi
3:20 PM64 °FPassing clouds.6 mph46%30.01 "HgN/A
2:50 PM64 °FSunny.8 mph46%30.04 "Hg10 mi
2:20 PM64 °FPassing clouds.6 mph52%30.04 "HgN/A
1:50 PM64 °FScattered clouds.6 mph46%30.04 "HgN/A
1:20 PM63 °FScattered clouds.2 mph49%30.04 "HgN/A
12:50 PM61 °FBroken clouds.6 mph52%30.04 "HgN/A
12:20 PM63 °FBroken clouds.6 mph52%30.04 "HgN/A
11:50 AM61 °FBroken clouds.6 mph59%30.04 "HgN/A
11:20 AM61 °FScattered clouds.5 mph63%30.04 "HgN/A
10:50 AM59 °FScattered clouds.6 mph63%30.07 "HgN/A
10:20 AM57 °FScattered clouds.2 mph72%30.07 "HgN/A
9:50 AM57 °FScattered clouds.5 mph72%30.07 "HgN/A
9:20 AM55 °FScattered clouds.3 mph77%30.04 "HgN/A
8:50 AM54 °FSunny.6 mph82%30.04 "Hg10 mi
8:20 AM52 °FSunny.6 mph82%30.04 "Hg10 mi
7:50 AM50 °FSunny.6 mph88%30.04 "Hg10 mi
7:20 AM48 °FClear.3 mph94%30.04 "Hg10 mi
6:50 AM48 °FClear.3 mph87%30.04 "Hg10 mi
6:20 AM48 °FClear.6 mph87%30.04 "Hg10 mi
5:50 AM48 °FClear.5 mph87%30.04 "Hg10 mi
5:20 AM46 °FClear.5 mph93%30.04 "Hg10 mi
4:50 AM48 °FClear.1 mph87%30.01 "Hg10 mi
4:20 AM48 °FClear.3 mph94%30.01 "Hg10 mi
3:50 AM50 °FClear.6 mph88%30.01 "Hg10 mi
3:20 AM50 °FClear.1 mph88%30.01 "Hg10 mi
2:50 AM48 °FClear.2 mph94%30.01 "Hg10 mi
2:20 AM50 °FClear.2 mph88%30.01 "Hg10 mi
1:50 AM52 °FClear.2 mph82%30.01 "Hg10 mi
1:20 AM52 °FClear.2 mph88%30.01 "Hg10 mi
12:50 AM52 °FPassing clouds.5 mph88%30.01 "HgN/A
12:20 AM55 °FClear.6 mph77%29.98 "Hg10 mi
11:50 PM
Aug 19
57 °FClear.6 mph72%29.98 "Hg10 mi
11:20 PM57 °FClear.8 mph72%29.98 "Hg10 mi
10:50 PM59 °FPartly cloudy.8 mph77%29.98 "HgN/A
10:20 PM57 °FPassing clouds.3 mph82%29.98 "HgN/A
9:50 PM59 °FPassing clouds.5 mph77%29.95 "HgN/A
9:20 PM59 °FPartly sunny.3 mph77%29.95 "HgN/A
8:50 PM59 °FPartly sunny.3 mph77%29.95 "HgN/A
8:20 PM59 °FPartly sunny.6 mph77%29.92 "HgN/A
Weather by CustomWeather, © 2014

See weather overviewHow to use our weather pages